EA5SW-13 Weather Reports


time (UTC)temp
F
wind
direction
speed
knots
gust
knots
rain 1hr
in
rain 24hr
in
rain mn
in
humidity
%
barometer
mb
20260507125835 74 0.0 0.9 0.00 0.00 0.00 54
20260507124631 74 0.0 0.9 0.00 0.00 0.00 53
20260507123716 72 0.0 0.9 0.00 0.00 0.00 61
20260507122631 69 0.0 0.9 0.00 0.00 0.00 66
20260507121656 68 0.0 1.7 0.00 0.00 0.00 70
20260507120631 67 0.0 0.9 0.00 0.00 0.00 70
20260507115316 67 0.0 0.9 0.00 0.00 0.00 71
20260507114232 66 0.0 0.0 0.00 0.00 0.00 71
20260507113255 66 0.0 0.9 0.00 0.00 0.00 71
20260507112231 66 0.0 0.9 0.00 0.00 0.00 71
20260507111255 67 0.0 0.9 0.00 0.00 0.00 70
20260507110231 67 0.0 0.9 0.00 0.00 0.00 69
20260507105656 67 315 0.9 1.7 0.00 0.00 0.00 66
20260507104631 68 90 0.0 1.7 0.00 0.00 0.00 62
20260507103656 68 0.0 0.9 0.00 0.00 0.00 65
20260507102631 68 0.0 0.9 0.00 0.00 0.00 69
20260507101655 68 0.0 1.7 0.00 0.00 0.00 68
20260507100631 0 0.0 0.0 0.00 0.00 0.00
20260507095655 68 360 0.9 2.6 0.00 0.00 0.00 66
20260507094631 67 0.0 0.9 0.00 0.00 0.00 66
20260507093715 67 0.0 0.9 0.00 0.00 0.00 66
20260507092632 67 113 0.0 1.7 0.00 0.00 0.00 66
20260507091655 67 0.0 0.9 0.00 0.00 0.00 65
20260507090631 66 0.0 0.9 0.00 0.00 0.00 67
20260507085655 67 225 0.0 1.7 0.00 0.00 0.00 68
20260507084632 66 0.0 0.9 0.00 0.00 0.00 70
20260507083735 66 0.0 0.9 0.00 0.00 0.00 70
20260507082651 66 0.0 0.9 0.00 0.00 0.00 70
20260507081655 66 0.0 0.0 0.00 0.00 0.00 69
20260507080631 0 0.0 0.0 0.00 0.00 0.00
20260507075655 64 0.0 0.9 0.00 0.00 0.00 64
20260507074632 64 0.0 0.9 0.00 0.00 0.00 64
20260507073656 63 0.0 0.9 0.00 0.00 0.00 68
20260507072631 63 0.0 0.9 0.00 0.00 0.00 66
20260507071655 63 0.0 0.9 0.00 0.00 0.00 65
20260507070631 62 0.0 0.9 0.00 0.00 0.00 64
20260507065655 62 0.0 0.0 0.00 0.00 0.00 66
20260507064631 61 0.0 0.0 0.00 0.00 0.00 69
20260507063716 60 0.0 0.9 0.00 0.00 0.00 70
20260507062631 59 0.0 0.0 0.00 0.00 0.00 71
20260507061656 59 0.0 0.0 0.00 0.00 0.00 72
20260507060632 58 0.0 0.9 0.00 0.00 0.00 73
20260507055716 58 0.0 0.0 0.00 0.00 0.00 73
20260507054632 57 0.0 0.9 0.00 0.00 0.00 74
20260507053656 57 0.0 0.0 0.00 0.00 0.00 74
20260507052632 57 0.0 0.0 0.00 0.00 0.00 74
20260507051655 57 0.0 0.0 0.00 0.00 0.00 74
20260507050652 57 0.0 0.0 0.00 0.00 0.00 74
20260507045656 57 0.0 0.0 0.00 0.00 0.00 73
20260507044652 57 0.0 0.0 0.00 0.00 0.00 73
20260507043656 57 0.0 0.0 0.00 0.00 0.00 73
20260507042652 57 0.0 0.0 0.00 0.00 0.00 73
20260507041656 58 0.0 0.0 0.00 0.00 0.00 73
20260507040632 58 0.0 0.9 0.00 0.00 0.00 73
20260507035256 58 0.0 0.0 0.00 0.00 0.00 73
20260507034232 58 0.0 0.0 0.00 0.00 0.00 73
20260507033256 58 0.0 0.0 0.00 0.00 0.00 73
20260507032232 58 0.0 0.0 0.00 0.00 0.00 73
20260507031256 58 0.0 0.9 0.00 0.00 0.00 73
20260507030232 58 0.0 0.0 0.00 0.00 0.00 73
20260507025656 58 0.0 0.0 0.00 0.00 0.00 74
20260507024632 58 0.0 0.9 0.00 0.00 0.00 74
20260507023656 58 0.0 0.0 0.00 0.00 0.00 74
20260507022632 58 0.0 0.0 0.00 0.00 0.00 73
20260507021716 58 0.0 0.0 0.00 0.00 0.00 73
20260507020632 0 0.0 0.0 0.00 0.00 0.00
20260507015716 59 0.0 1.7 0.00 0.00 0.00 73
20260507014632 59 0.0 0.0 0.00 0.00 0.00 73
20260507013656 59 0.0 0.0 0.00 0.00 0.00 72
20260507012632 59 0.0 0.0 0.00 0.00 0.00 72
20260507011656 60 0.0 0.0 0.00 0.00 0.00 72
20260507010632 60 0.0 0.0 0.00 0.00 0.00 72
20260507005656 60 0.0 0.0 0.00 0.00 0.00 72
20260507004632 60 0.0 0.0 0.00 0.00 0.00 72
20260507003656 60 0.0 0.0 0.00 0.00 0.00 71
20260507002712 61 0.0 0.0 0.00 0.00 0.00 71
20260507001656 61 0.0 0.0 0.00 0.00 0.00 71
20260507000652 0 0.0 0.0 0.00 0.00 0.00
20260506235656 62 0.0 0.0 0.00 0.00 0.00 71
20260506234632 62 0.0 0.0 0.00 0.00 0.00 71
20260506233656 62 0.0 0.0 0.00 0.00 0.00 70
20260506232632 62 0.0 0.0 0.00 0.00 0.00 70
20260506231656 62 0.0 0.0 0.00 0.00 0.00 70
20260506230632 62 0.0 0.0 0.00 0.00 0.00 70
20260506225656 62 0.0 0.0 0.00 0.00 0.00 70
20260506224713 62 0.0 0.0 0.00 0.00 0.00 70
20260506223656 62 0.0 0.0 0.00 0.00 0.00 70
20260506222653 62 0.0 0.0 0.00 0.00 0.00 69
20260506221656 62 0.0 0.0 0.00 0.00 0.00 68
20260506220632 0 0.0 0.0 0.00 0.00 0.00
20260506215656 62 0.0 0.0 0.00 0.00 0.00 68
20260506214633 63 0.0 0.0 0.00 0.00 0.00 68
20260506213656 63 0.0 0.0 0.00 0.00 0.00 68
20260506212633 63 0.0 0.0 0.00 0.00 0.00 68
20260506211656 63 0.0 0.0 0.00 0.00 0.00 68
20260506210633 63 0.0 0.0 0.00 0.00 0.00 67
20260506205657 63 0.0 0.0 0.00 0.00 0.00 67
20260506204714 63 0.0 0.0 0.00 0.00 0.00 66
20260506203656 64 0.0 0.0 0.00 0.00 0.00 63
20260506202632 64 0.0 0.0 0.00 0.00 0.00 62
20260506201657 64 0.0 0.0 0.00 0.00 0.00 62
20260506200632 0 0.0 0.0 0.00 0.00 0.00
20260506195657 64 0.0 0.0 0.00 0.00 0.00 62
20260506194632 64 0.0 0.0 0.00 0.00 0.00 62
20260506193657 65 0.0 0.0 0.00 0.00 0.00 61
20260506192633 65 0.0 0.0 0.00 0.00 0.00 61
20260506191717 65 0.0 0.0 0.00 0.00 0.00 61
20260506190633 65 0.0 0.0 0.00 0.00 0.00 60
20260506185656 66 0.0 0.0 0.00 0.00 0.00 59
20260506184633 67 0.0 0.9 0.00 0.00 0.00 57
20260506183656 69 0.0 0.0 0.00 0.00 0.00 57
20260506182653 68 0.0 0.0 0.00 0.00 0.00 58
20260506181656 67 0.0 0.9 0.00 0.00 0.00 56
20260506180632 68 0.0 0.9 0.00 0.00 0.00 56
20260506175657 68 0.0 0.0 0.00 0.00 0.00 55
20260506174634 69 0.0 0.9 0.00 0.00 0.00 54
20260506173656 69 0.0 0.9 0.00 0.00 0.00 55
20260506172714 69 0.0 0.9 0.00 0.00 0.00 54
20260506171657 70 0.0 0.9 0.00 0.00 0.00 52
20260506170633 71 0.0 0.9 0.00 0.00 0.00 51
20260506165657 72 0.0 0.9 0.00 0.00 0.00 51
20260506164633 72 0.0 0.9 0.00 0.00 0.00 52
20260506163657 72 0.0 0.9 0.00 0.00 0.00 51
20260506162713 72 0.0 0.9 0.00 0.00 0.00 48
20260506161716 74 0.0 0.9 0.00 0.00 0.00 46
20260506160653 73 0.0 0.9 0.00 0.00 0.00 50
20260506155657 71 0.0 0.9 0.00 0.00 0.00 51
20260506154653 72 0.0 0.9 0.00 0.00 0.00 50
20260506153657 74 0.0 0.9 0.00 0.00 0.00 46
20260506152633 74 0.0 0.9 0.00 0.00 0.00 50
20260506151657 70 0.0 0.9 0.00 0.00 0.00 54
20260506150633 71 0.0 0.9 0.00 0.00 0.00 52
20260506145656 70 0.0 0.9 0.00 0.00 0.00 53
20260506144633 70 0.0 0.9 0.00 0.00 0.00 53
20260506143657 70 0.0 0.9 0.00 0.00 0.00 53
20260506142633 70 0.0 0.9 0.00 0.00 0.00 53
20260506141657 71 0.0 0.9 0.00 0.00 0.00 53
20260506140633 0 0.0 0.0 0.00 0.00 0.00
20260506135717 71 315 0.9 1.7 0.00 0.00 0.00 52
20260506134653 72 0.0 0.9 0.00 0.00 0.00 52
20260506133717 73 0.0 1.7 0.00 0.00 0.00 45
20260506132633 76 0.0 0.9 0.00 0.00 0.00 43
20260506131657 78 0.0 0.9 0.00 0.00 0.00 41
20260506130633 80 0.0 1.7 0.00 0.00 0.00 39